timestamp,surface_pressure_avg,surface_temp_avg,battery_voltage,lat,long
2021-11-30 00:09:00+00:00,236.8031,8.2,12.65,47.84626,-54.09684
2021-11-30 00:19:01+00:00,228.3997,8.2,12.65,47.84626,-54.09684
2021-11-30 00:29:01+00:00,224.4547,8.2,12.65,47.84626,-54.09684
2021-11-30 00:39:01+00:00,228.3448,8.22,12.65,47.84626,-54.09684
2021-11-30 00:49:01+00:00,223.0514,8.26,12.65,47.84626,-54.09684
2021-11-30 00:59:01+00:00,215.2914,8.26,12.65,47.84626,-54.09684
2021-11-30 01:09:01+00:00,220.5747,8.23,12.65,47.84626,-54.09684
2021-11-30 01:19:00+00:00,221.3131,8.2,12.65,47.84626,-54.09684
2021-11-30 01:29:00+00:00,216.6915,8.21,12.65,47.84626,-54.09684
2021-11-30 01:39:00+00:00,219.6481,8.24,12.65,47.84626,-54.09684
2021-11-30 01:49:00+00:00,225.9847,8.25,12.65,47.84626,-54.09684
2021-11-30 01:59:00+00:00,227.4548,8.28,12.65,47.84626,-54.09684
2021-11-30 02:09:00+00:00,222.4481,8.3,12.65,47.84626,-54.09684
2021-11-30 02:19:00+00:00,220.3348,8.3,12.65,47.84626,-54.09684
2021-11-30 02:29:00+00:00,225.2215,8.3,12.65,47.84626,-54.09684
2021-11-30 02:39:00+00:00,226.0864,8.3,12.65,47.84626,-54.09684
2021-11-30 02:49:00+00:00,223.8848,8.3,12.65,47.84626,-54.09684
2021-11-30 02:59:00+00:00,226.3548,8.3,12.65,47.84626,-54.09684
2021-11-30 03:09:00+00:00,228.7931,8.3,12.65,47.84626,-54.09684
2021-11-30 03:19:00+00:00,229.4015,8.3,12.65,47.84626,-54.09684
2021-11-30 03:29:00+00:00,232.8564,8.3,12.65,47.84626,-54.09684
2021-11-30 03:39:00+00:00,239.9414,8.39,12.65,47.84626,-54.09684
2021-11-30 03:49:00+00:00,241.4164,8.4,12.65,47.84626,-54.09684
2021-11-30 03:59:00+00:00,246.8947,8.4,12.65,47.84626,-54.09684
2021-11-30 04:09:00+00:00,258.4947,8.4,12.65,47.84626,-54.09684
2021-11-30 04:19:00+00:00,267.8264,8.45,12.65,47.84626,-54.09684
2021-11-30 04:29:00+00:00,269.8397,8.46,12.65,47.84626,-54.09684
2021-11-30 04:39:00+00:00,275.4081,8.4,12.65,47.84626,-54.09684
2021-11-30 04:49:00+00:00,280.5598,8.44,12.65,47.84626,-54.09684
2021-11-30 04:59:00+00:00,291.2164,8.45,12.65,47.84626,-54.09684
2021-11-30 05:09:00+00:00,299.938,8.46,12.65,47.84626,-54.09684
2021-11-30 05:19:01+00:00,305.2196,8.47,12.65,47.84626,-54.09684
2021-11-30 05:29:01+00:00,306.3481,8.47,12.65,47.84626,-54.09684
2021-11-30 05:39:01+00:00,311.1047,8.48,12.65,47.84626,-54.09684
2021-11-30 05:49:01+00:00,315.7597,8.49,12.65,47.84626,-54.09684
2021-11-30 05:59:01+00:00,323.4363,8.49,12.65,47.84626,-54.09684
2021-11-30 06:09:01+00:00,328.3046,8.5,12.65,47.84626,-54.09684
2021-11-30 06:19:00+00:00,330.6497,8.58,12.65,47.84626,-54.09684
2021-11-30 06:29:00+00:00,335.4879,8.57,12.65,47.84626,-54.09684
2021-11-30 06:39:00+00:00,339.6247,8.53,12.65,47.84626,-54.09684
2021-11-30 06:49:00+00:00,340.8846,8.51,12.65,47.84626,-54.09684
2021-11-30 06:59:00+00:00,350.288,8.5,12.65,47.84626,-54.09684
2021-11-30 07:09:00+00:00,352.7146,8.5,12.65,47.84626,-54.09684
2021-11-30 07:19:00+00:00,353.5662,8.49,12.65,47.84626,-54.09684
2021-11-30 07:29:00+00:00,360.3713,8.5,12.65,47.84626,-54.09684
2021-11-30 07:39:00+00:00,366.7713,8.4,12.65,47.84626,-54.09684
2021-11-30 07:49:00+00:00,362.81800000000004,8.4,12.65,47.84626,-54.09684
2021-11-30 07:59:00+00:00,367.3713,8.5,12.65,47.84626,-54.09684
2021-11-30 08:09:00+00:00,368.5762,8.5,12.65,47.84626,-54.09684
2021-11-30 08:19:00+00:00,355.8879,8.5,12.65,47.84626,-54.09684
2021-11-30 08:29:00+00:00,356.6528,8.5,12.65,47.84626,-54.09684
2021-11-30 08:39:00+00:00,363.6713,8.5,12.65,47.84626,-54.09684
2021-11-30 08:49:00+00:00,357.5979,8.4,12.65,47.84626,-54.09684
2021-11-30 08:59:00+00:00,350.6446,8.4,12.65,47.84626,-54.09684
2021-11-30 09:09:00+00:00,360.05300000000005,8.4,12.65,47.84626,-54.09684
2021-11-30 09:19:00+00:00,350.56800000000015,8.4,12.65,47.84626,-54.09684
2021-11-30 09:29:00+00:00,329.7679,8.47,12.65,47.84626,-54.09684
2021-11-30 09:39:00+00:00,328.9013,8.42,12.65,47.84626,-54.09684
2021-11-30 09:49:00+00:00,330.5479,8.4,12.65,47.84626,-54.09684
2021-11-30 09:59:00+00:00,317.218,8.42,12.65,47.84626,-54.09684
2021-11-30 10:09:00+00:00,305.7946,8.47,12.65,47.84626,-54.09684
2021-11-30 10:19:01+00:00,308.6281,8.45,12.65,47.84626,-54.09684
2021-11-30 10:29:01+00:00,306.2747,8.44,12.65,47.84626,-54.09684
2021-11-30 10:39:01+00:00,294.9197,8.49,12.65,47.84626,-54.09684
2021-11-30 10:49:01+00:00,296.723,8.5,12.65,47.84626,-54.09684
2021-11-30 10:59:01+00:00,295.918,8.49,12.65,47.84626,-54.09684
2021-11-30 11:09:01+00:00,290.0047,8.46,12.65,47.84626,-54.09684
2021-11-30 11:19:00+00:00,282.2914,8.42,12.65,47.84626,-54.09684
2021-11-30 11:29:00+00:00,280.8631,8.42,12.65,47.84626,-54.09684
2021-11-30 11:39:00+00:00,272.2547,8.42,12.65,47.84626,-54.09684
2021-11-30 11:49:00+00:00,263.4564,8.41,12.65,47.84626,-54.09684
2021-11-30 11:59:00+00:00,263.4181,8.45,12.65,47.84626,-54.09684
2021-11-30 12:09:00+00:00,266.5981,8.46,12.65,47.84626,-54.09684
2021-11-30 12:19:00+00:00,260.5148,8.42,12.65,47.84626,-54.09684
2021-11-30 12:29:00+00:00,262.2181,8.4,12.65,47.84626,-54.09684
2021-11-30 12:39:00+00:00,270.1347,8.44,12.65,47.84626,-54.09684
2021-11-30 12:49:00+00:00,275.1597,8.47,12.65,47.84626,-54.09684
2021-11-30 12:59:00+00:00,270.8531,8.41,12.65,47.84626,-54.09684
2021-11-30 13:09:00+00:00,265.6881,8.41,12.65,47.84626,-54.09684
2021-11-30 13:19:00+00:00,253.8898,8.4,12.65,47.84626,-54.09684
2021-11-30 13:29:00+00:00,245.8031,8.48,12.65,47.84626,-54.09684
2021-11-30 13:39:00+00:00,245.7097,8.49,12.65,47.84626,-54.09684
2021-11-30 13:49:00+00:00,251.9514,8.5,12.65,47.84626,-54.09684
2021-11-30 13:59:00+00:00,255.6631,8.5,12.65,47.84626,-54.09684
2021-11-30 14:09:00+00:00,255.9714,8.5,12.65,47.84626,-54.09684
2021-11-30 14:19:00+00:00,243.3848,8.5,12.65,47.84626,-54.09684
2021-11-30 14:29:00+00:00,239.9381,8.5,12.65,47.84626,-54.09684
2021-11-30 14:39:00+00:00,249.8197,8.49,12.65,47.84626,-54.09684
2021-11-30 14:49:00+00:00,251.9731,8.5,12.65,47.84626,-54.09684
2021-11-30 14:59:00+00:00,239.9098,8.54,12.65,47.84626,-54.09684
2021-11-30 15:09:00+00:00,236.0731,8.5,12.65,47.84626,-54.09684
2021-11-30 15:19:00+00:00,240.4614,8.5,12.65,47.84626,-54.09684
2021-11-30 15:29:00+00:00,230.3381,8.5,12.65,47.84626,-54.09684
2021-11-30 15:39:00+00:00,224.4281,8.5,12.65,47.84626,-54.09684
2021-11-30 15:49:00+00:00,230.3531,8.5,12.65,47.84626,-54.09684
2021-11-30 15:59:00+00:00,233.2364,8.5,12.65,47.84626,-54.09684
2021-11-30 16:09:00+00:00,240.3881,8.47,12.65,47.84626,-54.09684
2021-11-30 16:19:00+00:00,255.5048,8.44,12.65,47.84626,-54.09684
2021-11-30 16:29:00+00:00,258.5931,8.47,12.65,47.84626,-54.09684
2021-11-30 16:39:00+00:00,251.9748,8.4,12.65,47.84626,-54.09684
2021-11-30 16:49:00+00:00,254.1564,8.41,12.65,47.84626,-54.09684
2021-11-30 16:59:00+00:00,260.5464,8.42,12.65,47.84626,-54.09684
2021-11-30 17:09:00+00:00,260.6531,8.43,12.65,47.84626,-54.09684
2021-11-30 17:19:01+00:00,261.6814,8.43,12.65,47.84626,-54.09684
2021-11-30 17:29:01+00:00,266.7931,8.44,12.65,47.84626,-54.09684
2021-11-30 17:39:01+00:00,274.978,8.45,12.65,47.84626,-54.09684
2021-11-30 17:49:01+00:00,277.3064,8.46,12.65,47.84626,-54.09684
2021-11-30 17:59:01+00:00,281.1931,8.47,12.65,47.84626,-54.09684
2021-11-30 18:09:01+00:00,292.0314,8.48,12.65,47.84626,-54.09684
2021-11-30 18:19:00+00:00,305.08799999999997,8.48,12.65,47.84626,-54.09684
2021-11-30 18:29:00+00:00,309.4447,8.49,12.65,47.84626,-54.09684
2021-11-30 18:39:00+00:00,314.5847,8.5,12.65,47.84626,-54.09684
2021-11-30 18:49:00+00:00,326.8413,8.51,12.65,47.84626,-54.09684
2021-11-30 18:59:00+00:00,339.5413,8.59,12.65,47.84626,-54.09684
2021-11-30 19:09:00+00:00,352.1913,8.5,12.65,47.84626,-54.09684
2021-11-30 19:19:01+00:00,357.8396,8.5,12.65,47.84626,-54.09684
2021-11-30 19:29:01+00:00,357.6962,8.5,12.65,47.84626,-54.09684
2021-11-30 19:39:01+00:00,347.8063,8.5,12.65,47.84626,-54.09684
2021-11-30 19:49:01+00:00,335.7363,8.52,12.65,47.84626,-54.09684
2021-11-30 19:59:01+00:00,327.918,8.55,12.65,47.84626,-54.09684
2021-11-30 20:09:01+00:00,336.648,8.54,12.65,47.84626,-54.09684
2021-11-30 20:19:01+00:00,342.8947,8.52,12.65,47.84626,-54.09684
2021-11-30 20:29:01+00:00,339.6364,8.54,12.65,47.84626,-54.09684
2021-11-30 20:39:01+00:00,329.5113,8.51,12.65,47.84626,-54.09684
2021-11-30 20:49:01+00:00,331.273,8.51,12.65,47.84626,-54.09684
2021-11-30 20:59:01+00:00,334.4530000000001,8.5,12.65,47.84626,-54.09684
2021-11-30 21:09:01+00:00,329.293,8.5,12.65,47.84626,-54.09684
2021-11-30 21:19:01+00:00,323.7463,8.5,12.65,47.84626,-54.09684
2021-11-30 21:29:01+00:00,324.7946,8.5,12.65,47.84626,-54.09684
2021-11-30 21:39:01+00:00,320.7313,8.5,12.65,47.84626,-54.09684
2021-11-30 21:49:01+00:00,312.3663,8.5,12.65,47.84626,-54.09684
2021-11-30 21:59:01+00:00,309.1363,8.54,12.65,47.84626,-54.09684
2021-11-30 22:09:01+00:00,304.2864,8.55,12.65,47.84626,-54.09684
2021-11-30 22:19:00+00:00,300.798,8.57,12.65,47.84626,-54.09684
2021-11-30 22:29:00+00:00,303.3313,8.59,12.65,47.84626,-54.09684
2021-11-30 22:39:00+00:00,303.4197,8.58,12.65,47.84626,-54.09684
2021-11-30 22:49:00+00:00,288.3664,8.54,12.65,47.84626,-54.09684
2021-11-30 22:59:00+00:00,274.1248,8.55,12.65,47.84626,-54.09684
2021-11-30 23:09:00+00:00,275.0647,8.54,12.65,47.84626,-54.09684
